{"data":{"norad_id":39425,"intl_designator":"2013-066K","name":"APRIZESAT 8","alt_names":[],"object_type":"PAYLOAD","status":"ACTIVE","operator":null,"country":"US","launch_date":"2013-11-21","launch_site_code":"DLS","launch_vehicle":null,"mission":null,"orbit_class":"UNKNOWN","rcs_meters":0.1186,"size_class":null,"mass_kg":null,"dimensions":null,"purposes":["tech_demo"],"wikipedia_slug":null,"has_3d_model":false,"image_url":null,"decayed_at":null,"tle_current":{"epoch":"2026-05-25T03:18:24.426144Z","epoch_age_seconds":62517,"freshness":"FRESH","line1":"1 39425U 13066K   26145.13778271  .00000958  00000+0  10959-3 0  9991","line2":"2 39425  97.8210  92.9300 0046110   3.7587 356.3966 14.87594708676243","mean_motion":14.87594708,"eccentricity":0.004611,"inclination_deg":97.821,"raan_deg":92.93,"arg_perigee_deg":3.7587,"mean_anomaly_deg":356.3966,"bstar":0.00010959,"rev_number":67624,"period_min":96.800559470665,"perigee_km":573.25204665334,"apogee_km":637.65471715526,"semimajor_km":6983.5903819043,"source":"CELESTRAK","updated_at":"2026-05-25T13:38:24.896072Z"}}}